Погода в Новой Котельне

Украина / Житомирская область     50°05′54″N   28°55′52″E
темп.,
°C
ветер,
м/с
пор.,
м/с
влажн.,
%
обл.,
%
осадки,
мм/ч
давл.,
гПа
погр.,
м
16 мая, вс
вс1600:00+10юз22913 0.0 101124
03:00+10ююз22912 0.0 101215
06:00+9ю22924 0.0 101233
09:00+15юв34735 0.0 1012378
12:00+20ююв455817 0.0 10111180
15:00+21ююв5657100 1.1 10111501
18:00+20юв3565100 0.9 1009486
21:00+16юв3883100 1.4 1009155
17 мая, пн
пн1700:00+13юв3386100 0.0 100934
03:00+12вюв338783 0.0 100834
06:00+12всв2288100 0.0 100720
09:00+17св347795 0.0 1006368
12:00+17в5682100 1.3 1005409
15:00+17ссв347496 2.3 1005442
18:00+16ююв0185100 0.3 1004131
21:00+13сз3695100 2.7 1004138
18 мая, вт
вт1800:00+13зсз2392100 0.1 100358
03:00+11юз129396 0.1 100211
06:00+11ю239496 0.1 100143
09:00+14ю3586100 0.4 1001391
12:00+12зюз8119499 2.7 1002547
15:00+14з81079100 2.9 10041002
18:00+13з7117899 0.2 10051142
21:00+10з6128647 0.3 1006697
19 мая, ср
ср1900:00+9зюз6138927 0.0 1007459
03:00+8зюз613945 0.0 1008402
06:00+8зюз6149320 0.0 1008517
09:00+11зюз81181100 0.0 1009851
12:00+13зюз9126999 0.1 10101416
15:00+15з91162100 0.2 10101734
18:00+14зсз6106884 0.1 10111361
21:00+10зсз3786100 0.1 1014123
20 мая, чт
чт2000:00+7з37934 0.0 1016115
03:00+7з3694100 0.0 1016101
06:00+7зсз359498 0.0 1017117
09:00+12ссз347480 0.0 1018505
12:00+15зсз2258100 0.0 10181481
15:00+16зсз325299 0.1 10181757
18:00+16з22555 0.0 10181009
21:00+12з1169100 0.0 101810